SCP
0 0 0 0 0 0 0 0 0 0 0 0 0 0 0 0 0 0 0 0 0 0 0 0 0 -0 0 0 0 0 0 0 0 0 0 0 0 0 0 0 0 0 1 1
0 0 0 0 0 0 0 0 0 0 0 0 0 0 0 0 0 0 0 0 0 0 0 0 0 0 0 0 0 0 0 0 0 0 0 0 0 0 0 0 0 0 1 1
0 0 0 0 0 0 0 0 0 0 0 0 0 0 0 0 0 0 0 -0 0 0 0 0 0 0 0 0 0 0 0 0 0 0 0 0 0 0 0 0 0 0 0 0
0 0 0 0 0 0 0 0 0 0 0 0 0 0 0 0 0 0 0 0 0 0 0 0 0 0 0 0 0 0 0 0 0 0 0 0 0 0 0 0 0 0 0 0
0 0 0 0 0 0 0 0 0 0 0 0 0 0 0 0 0 0 0 0 0 0 0 0 0 0 0 0 0 0 0 0 0 0 0 -0 0 0 0 0 0 0 0 0
0 0 0 0 0 0 0 0 0 0 0 0 0 0 0 0 0 0 0 0 0 0 0 0 0 0 0 0 0 0 0 0 0 0 0 0 0 -0 0 0 0 0 0 0
0 0 0 0 0 0 0 0 0 0 0 0 0 0 0 0 0 0 0 0 0 0 0 0 0 0 0 0 0 0 0 0 0 0 0 0 -0 0 -0 0 0 0 0 0
0 0 0 0 0 0 0 0 0 0 0 0 0 0 0 0 0 0 0 0 0 0 0 0 0 0 0 0 0 0 0 0 0 0 0 -0 0 0 -0 -0 -0 0 0 0
0 0 0 0 0 0 0 0 0 0 0 0 0 0 0 0 0 0 0 0 0 0 0 0 0 0 0 0 0 0 0 0 0 0 0 -0 0 -0 -0 -0 -0 0 0 0
0 0 0 0 0 0 0 0 0 0 0 0 0 0 0 0 0 0 0 0 0 0 0 0 0 0 0 0 0 0 0 0 0 0 -0 -0 0 -0 -0 0 -0 -0 -0 -0
0 0 0 0 0 0 0 0 0 0 0 0 0 0 0 0 0 0 0 0 0 0 0 0 0 0 0 0 0 -0 -0 -0 -0 -0 0 0 -0 -0 -0 -0 -0 -0 -0 -0
-0 -0 0 0 0 0 0 0 0 0 0 0 0 0 0 0 0 1 0 0 0 0 0 0 0 0 0 0 -0 -0 0 -0 0 0 -0 -0 -0 -0 -0 -0 0 0 0 -0
0 0 0 0 0 0 0 0 0 0 0 0 0 0 0 0 1 0 0 0 0 0 0 0 0 0 0 0 0 0 0 0 0 0 0 -0 -0 -0 -0 -0 0 0 0 0
0 0 0 0 0 0 0 0 0 0 0 0 0 0 0 1 1 0 0 0 0 0 0 0 0 0 0 0 0 0 0 -0 0 0 0 0 0 -0 -0 -0 -0 -0 -0 -0
0 0 0 0 0 0 0 0 0 0 0 0 0 1 1 1 0 0 0 -0 0 0 0 0 0 0 0 0 0 0 0 0 0 0 0 0 -0 0 0 0 -0 -0 -0 -0
0 0 0 0 0 0 0 0 0 0 0 1 1 0 0 0 0 0 0 0 0 0 0 0 0 0 0 0 0 0 0 0 0 0 0 -0 -0 0 0 0 0 -0 -0 -0
0 0 0 0 0 0 0 0 0 0 0 0 0 0 0 0 0 0 0 0 0 0 0 0 0 0 0 0 0 0 0 0 0 0 0 0 0 0 0 0 -0 0 0 0
0 0 0 0 0 0 0 0 0 0 0 0 0 0 0 0 0 0 0 0 0 0 0 0 0 0 0 0 0 0 0 0 0 0 0 0 0 0 0 0 0 0 0 0
0 0 0 0 0 0 0 0 0 0 0 0 0 0 0 0 0 0 0 0 0 0 0 0 0 0 0 0 0 0 0 0 0 0 0 0 0 0 0 0 0 0 0 0
0 0 0 -0 0 0 -0 0 0 0 0 0 0 -0 0 0 0 0 0 0 0 0 0 0 0 0 0 0 0 0 0 0 0 0 0 0 0 0 0 0 0 0 0 0
0 -0 -0 0 0 -0 0 0 0 0 0 0 0 0 0 0 0 0 0 0 0 0 0 0 0 0 0 0 0 0 0 0 0 0 0 0 0 0 0 0 0 0 0 0
0 -0 -0 -0 -0 -0 -0 0 0 0 0 0 0 0 0 0 0 -0 0 0 0 0 0 0 0 0 0 0 0 0 0 0 0 0 0 0 0 0 0 0 0 0 0 0
-0 0 -0 -0 -0 -0 -0 -0 -0 -0 -0 0 -0 0 -0 0 0 -0 0 0 0 0 0 0 -0 -0 0 0 0 0 0 0 0 0 0 0 0 0 0 0 0 0 0 0
-0 -0 -0 0 -0 -0 -0 -0 -0 -0 -0 -0 -0 -0 -0 -0 0 -0 0 0 0 0 0 0 0 0 0 0 0 0 0 0 0 0 0 0 0 0 0 0 0 0 0 0
-0 -0 0 0 -0 0 -0 0 -0 -0 0 0 -0 0 0 0 0 0 0 0 0 0 0 0 0 0 0 0 0 0 0 0 0 0 0 0 0 0 0 0 0 0 0 0
0 0 0 0 -0 -0 -0 -0 -0 -0 -0 -0 -0 -0 -0 -0 -0 -0 -0 -0 0 0 0 0 0 0 0 0 0 0 0 0 0 0 0 0 0 0 0 0 0 0 0 0
-0 -0 -0 0 -0 -0 -0 0 0 0 0 0 0 -0 -0 0 0 -0 -0 0 0 0 0 0 0 0 0 0 0 0 0 0 0 0 0 0 0 -0 0 0 0 0 0 0
Wind_Speed_500mb
8 7 4 5 6 1 3 9 10 16 15 15 16 16 33 36 29 29 27 19 14 6 14 31 38 42 40 40 44 45 47 50 54 56 56 54 55 56 57 61 71 73 72 68
1 6 11 7 10 5 5 6 9 14 13 17 33 31 28 27 22 33 29 19 6 11 29 35 39 38 38 40 42 42 44 46 55 60 60 55 58 56 54 55 57 63 64 63
6 5 7 10 6 5 9 10 13 14 15 16 14 27 32 25 30 29 18 8 13 22 28 32 31 30 33 38 40 42 39 45 49 48 52 56 70 66 53 51 47 47 52 57
9 6 5 15 8 9 16 20 24 10 25 31 38 39 36 26 21 13 10 10 18 21 28 28 29 28 31 32 37 39 34 41 42 49 69 77 67 53 42 37 35 34 41 45
9 9 8 8 10 1 4 10 9 14 14 31 47 35 19 20 16 11 8 9 21 25 29 28 29 29 31 34 32 38 38 40 43 56 65 72 65 54 25 28 32 25 24 29
8 10 17 17 17 11 5 8 3 31 23 31 32 6 8 14 5 7 10 11 20 23 23 23 22 28 25 33 37 36 38 40 42 42 59 57 57 67 25 17 20 17 24 27
8 10 12 12 16 8 11 18 37 36 37 34 12 14 9 7 6 7 9 13 20 23 16 17 19 24 22 27 26 35 39 39 39 38 49 47 41 53 64 18 14 20 15 21
2 3 15 17 8 16 13 25 34 36 35 23 16 17 16 16 13 14 15 15 22 20 15 17 21 23 24 25 20 40 42 37 45 26 41 37 25 55 59 58 39 26 15 0
8 9 21 18 23 24 43 39 33 30 25 20 19 25 24 20 22 21 15 13 19 24 16 16 19 17 18 22 23 35 39 49 39 22 24 26 33 36 43 48 59 65 40 47
11 14 35 38 20 12 32 38 37 29 27 17 18 19 14 16 21 21 16 7 13 22 19 15 12 14 17 22 23 29 34 41 34 22 18 19 25 29 28 40 39 38 44 45
4 11 25 43 45 34 28 30 39 33 35 27 19 16 14 16 25 29 17 8 11 15 13 9 8 11 14 23 25 25 29 29 36 27 21 24 27 29 35 33 35 34 33 34
8 8 8 44 71 47 40 17 6 24 20 22 24 29 31 25 25 35 18 9 12 11 7 7 7 13 11 22 13 14 12 25 34 33 47 34 21 21 28 33 31 29 26 25
30 27 40 47 34 37 43 42 34 19 13 23 22 27 30 30 32 31 10 8 11 14 10 6 7 11 11 8 4 9 15 18 25 27 34 34 32 24 17 26 29 33 40 37
42 40 49 53 36 46 46 40 41 33 26 32 36 27 27 23 43 33 12 20 23 10 4 7 3 7 10 2 1 12 17 9 19 19 21 21 22 20 24 28 20 21 32 36
63 59 54 54 51 57 54 34 22 24 36 34 34 35 23 31 39 20 18 24 17 11 5 3 2 8 12 14 14 14 10 20 21 8 13 17 19 14 17 18 19 16 17 16
54 32 32 37 27 27 27 37 34 45 49 39 35 26 25 29 34 29 20 30 29 14 8 9 8 12 12 8 11 15 9 17 21 23 13 12 18 21 14 9 10 16 12 10
39 22 26 29 27 20 16 17 33 21 11 9 14 22 28 31 29 20 18 14 17 13 14 15 16 12 5 2 2 2 5 13 12 9 10 18 20 17 22 27 19 15 20 16
69 61 37 28 22 32 32 23 27 22 16 10 8 25 27 28 21 15 9 13 18 18 16 14 22 16 7 13 8 4 3 8 13 7 8 12 24 24 27 29 32 30 27 22
38 33 23 15 12 17 28 11 30 20 18 9 8 16 23 26 27 27 19 17 25 21 19 20 20 16 12 10 7 5 9 4 8 18 24 21 21 29 29 27 25 22 19 15
5 8 20 36 22 7 10 37 23 16 24 35 22 24 33 30 15 22 20 24 21 20 20 18 11 5 3 8 8 18 15 11 11 12 13 14 21 23 22 19 18 20 18 17
11 7 14 15 20 7 12 17 22 33 26 21 28 30 45 32 33 36 38 38 31 22 13 8 10 6 2 15 12 11 7 7 10 9 8 12 13 15 17 18 15 12 14 15
27 27 20 25 31 31 28 21 13 20 33 34 36 44 34 40 44 39 35 28 27 14 11 10 10 14 14 11 13 12 8 3 7 8 10 11 10 11 13 15 13 11 12 13
41 45 42 35 30 28 23 16 22 21 23 35 38 42 47 45 42 47 41 27 18 11 5 12 18 14 10 8 8 6 7 7 7 10 12 13 13 14 15 16 17 17 17 18
30 27 30 30 28 31 35 31 35 39 44 46 51 52 58 49 37 31 31 22 17 15 14 14 16 10 3 10 6 4 8 13 14 14 17 18 15 11 12 16 20 24 27 31
17 29 34 31 38 42 39 36 36 40 45 46 46 43 40 32 33 29 26 25 24 21 18 12 8 9 13 15 10 8 10 14 19 23 15 14 12 13 17 23 29 35 38 41
35 35 29 26 29 35 43 44 49 44 41 46 44 39 30 29 30 28 23 19 15 16 16 18 18 10 13 10 9 6 10 18 22 13 11 14 17 24 32 37 40 41 41 40
41 40 43 44 45 45 41 41 43 43 40 39 39 32 27 24 24 22 17 16 13 12 9 12 12 9 10 6 4 7 13 18 23 15 17 20 27 36 45 44 41 41 41 41
Wind_Direction_500mb
174 208 220 202 251 22 160 212 162 261 207 179 174 144 134 133 137 146 159 180 205 257 331 335 338 339 336 337 337 333 334 333 329 322 318 312 306 295 288 278 266 263 263 262
90 319 348 300 308 352 327 261 237 225 259 170 161 141 141 148 150 163 168 178 188 320 330 329 334 331 333 336 339 337 335 333 331 322 318 315 319 307 295 287 274 262 254 251
242 50 31 334 223 297 280 261 215 267 202 174 157 150 152 145 149 159 173 217 318 322 323 327 328 328 334 338 340 336 338 340 339 339 330 325 323 310 287 287 274 259 249 249
191 65 260 237 229 224 245 261 286 159 152 168 159 149 143 148 152 174 233 290 307 317 327 330 331 324 330 335 340 335 343 346 346 347 349 343 327 307 275 276 271 251 249 252
153 194 275 313 292 289 310 314 345 122 124 146 144 138 151 165 173 190 250 302 318 321 322 331 329 326 328 338 329 343 345 347 359 357 350 348 350 7 330 269 254 241 238 242
141 184 215 212 231 223 170 256 242 139 149 166 164 140 241 181 182 212 265 294 298 309 308 327 329 336 325 341 339 343 341 340 347 345 349 349 5 3 348 289 253 245 239 242
208 237 269 238 203 149 158 246 179 171 166 166 180 194 166 202 271 230 279 298 296 296 289 314 324 344 333 335 357 343 341 344 339 339 328 335 355 15 20 16 230 241 255 246
79 200 296 197 100 178 207 152 169 168 172 177 182 184 197 223 208 232 249 279 290 278 286 314 323 329 338 337 327 342 353 351 345 350 351 352 5 25 23 50 64 63 61 205
152 233 287 242 230 204 170 178 184 186 193 201 204 200 201 207 208 232 232 287 289 266 253 307 319 325 331 343 335 348 352 355 348 352 344 8 23 47 43 43 51 53 51 79
24 340 350 15 341 214 201 207 200 203 183 161 162 194 240 235 197 217 222 277 294 249 261 296 314 340 327 345 337 337 355 8 9 15 3 38 47 47 57 64 59 69 67 65
274 324 342 345 341 331 335 276 248 203 202 201 207 239 258 283 227 240 233 277 281 248 260 265 300 325 328 344 342 334 13 0 30 47 38 31 47 60 67 63 63 66 71 74
236 308 305 312 323 296 279 351 328 207 192 205 231 253 264 289 248 218 211 283 247 193 197 233 295 305 326 340 346 348 20 2 31 38 43 30 58 52 63 61 61 62 62 63
279 301 310 306 313 307 310 274 240 254 272 262 249 266 283 286 257 200 180 313 229 205 164 240 291 299 318 358 53 26 21 16 14 34 53 49 51 48 59 43 52 55 68 66
287 305 309 308 307 300 303 303 250 253 235 258 272 276 264 273 190 186 229 263 225 205 206 266 316 354 348 79 217 3 13 358 3 9 62 54 36 44 51 46 47 68 62 59
278 284 283 286 289 280 291 279 293 294 286 264 268 267 248 201 195 194 128 231 220 183 207 213 91 16 104 87 33 355 43 51 20 39 28 36 33 52 46 53 63 65 57 56
278 278 251 258 267 276 273 278 278 301 266 253 250 227 196 193 165 157 193 220 209 185 178 192 147 118 111 65 26 15 101 58 30 51 69 53 71 42 23 23 52 74 78 38
234 222 249 264 258 263 263 295 272 217 154 181 204 189 182 187 189 194 206 230 207 216 211 200 183 174 166 237 286 352 54 30 33 18 60 30 22 27 40 56 70 81 92 86
255 259 244 249 266 264 273 308 202 166 126 125 239 231 213 226 224 186 226 224 213 232 213 210 211 216 201 220 251 269 41 28 35 40 60 76 65 61 77 76 86 90 96 98
240 226 211 234 249 265 283 303 224 188 179 275 222 239 225 201 185 182 191 219 220 212 170 172 189 211 233 258 256 177 137 160 98 82 97 100 80 83 85 92 86 82 71 55
198 175 303 285 204 167 154 232 225 205 197 174 159 137 173 166 183 184 152 135 140 159 172 181 166 170 118 111 140 153 130 116 120 97 79 76 88 96 103 103 93 80 70 60
336 49 2 179 228 293 235 218 187 183 169 178 194 211 181 167 150 160 146 145 129 116 113 139 178 178 129 149 149 144 153 110 98 85 67 66 66 73 75 81 83 75 81 61
113 114 129 144 132 115 105 109 127 145 161 179 166 167 158 144 156 155 158 153 133 123 112 110 121 122 130 136 135 142 134 84 46 45 54 53 47 46 48 49 46 28 4 357
114 110 101 100 97 92 111 128 128 128 152 154 164 156 145 143 150 141 132 128 126 116 106 109 121 126 137 118 91 74 65 59 39 37 32 30 30 17 14 19 15 9 355 341
100 88 90 94 109 109 106 111 118 116 123 129 131 134 140 137 122 127 128 120 110 108 123 129 118 109 102 85 82 37 36 42 38 20 3 354 3 7 3 360 347 339 332 325
110 125 118 111 104 100 106 117 124 122 120 123 120 118 119 115 110 111 118 118 101 91 92 84 83 111 96 89 60 28 23 27 12 8 43 59 48 21 359 345 337 331 325 320
126 128 123 116 109 113 112 111 113 120 119 114 110 113 109 105 106 109 104 97 79 97 93 80 75 90 76 50 21 43 32 14 12 37 38 22 3 349 342 334 330 326 323 319
101 106 112 112 107 105 106 108 111 113 112 112 113 119 114 121 128 119 131 123 104 108 102 89 66 78 81 42 44 50 25 10 4 20 10 357 352 350 345 341 338 334 330 324
Wind_Speed_850mb
8 7 4 5 6 1 3 9 10 16 15 15 16 16 33 36 29 29 27 19 14 6 14 31 38 42 40 40 44 45 47 50 54 56 56 54 55 56 57 61 71 73 72 68
1 6 11 7 10 5 5 6 9 14 13 17 33 31 28 27 22 33 29 19 6 11 29 35 39 38 38 40 42 42 44 46 55 60 60 55 58 56 54 55 57 63 64 63
6 5 7 10 6 5 9 10 13 14 15 16 14 27 32 25 30 29 18 8 13 22 28 32 31 30 33 38 40 42 39 45 49 48 52 56 70 66 53 51 47 47 52 57
9 6 5 15 8 9 16 20 24 10 25 31 38 39 36 26 21 13 10 10 18 21 28 28 29 28 31 32 37 39 34 41 42 49 69 77 67 53 42 37 35 34 41 45
9 9 8 8 10 1 4 10 9 14 14 31 47 35 19 20 16 11 8 9 21 25 29 28 29 29 31 34 32 38 38 40 43 56 65 72 65 54 25 28 32 25 24 29
8 10 17 17 17 11 5 8 3 31 23 31 32 6 8 14 5 7 10 11 20 23 23 23 22 28 25 33 37 36 38 40 42 42 59 57 57 67 25 17 20 17 24 27
8 10 12 12 16 8 11 18 37 36 37 34 12 14 9 7 6 7 9 13 20 23 16 17 19 24 22 27 26 35 39 39 39 38 49 47 41 53 64 18 14 20 15 21
2 3 15 17 8 16 13 25 34 36 35 23 16 17 16 16 13 14 15 15 22 20 15 17 21 23 24 25 20 40 42 37 45 26 41 37 25 55 59 58 39 26 15 0
8 9 21 18 23 24 43 39 33 30 25 20 19 25 24 20 22 21 15 13 19 24 16 16 19 17 18 22 23 35 39 49 39 22 24 26 33 36 43 48 59 65 40 47
11 14 35 38 20 12 32 38 37 29 27 17 18 19 14 16 21 21 16 7 13 22 19 15 12 14 17 22 23 29 34 41 34 22 18 19 25 29 28 40 39 38 44 45
4 11 25 43 45 34 28 30 39 33 35 27 19 16 14 16 25 29 17 8 11 15 13 9 8 11 14 23 25 25 29 29 36 27 21 24 27 29 35 33 35 34 33 34
8 8 8 44 71 47 40 17 6 24 20 22 24 29 31 25 25 35 18 9 12 11 7 7 7 13 11 22 13 14 12 25 34 33 47 34 21 21 28 33 31 29 26 25
30 27 40 47 34 37 43 42 34 19 13 23 22 27 30 30 32 31 10 8 11 14 10 6 7 11 11 8 4 9 15 18 25 27 34 34 32 24 17 26 29 33 40 37
42 40 49 53 36 46 46 40 41 33 26 32 36 27 27 23 43 33 12 20 23 10 4 7 3 7 10 2 1 12 17 9 19 19 21 21 22 20 24 28 20 21 32 36
63 59 54 54 51 57 54 34 22 24 36 34 34 35 23 31 39 20 18 24 17 11 5 3 2 8 12 14 14 14 10 20 21 8 13 17 19 14 17 18 19 16 17 16
54 32 32 37 27 27 27 37 34 45 49 39 35 26 25 29 34 29 20 30 29 14 8 9 8 12 12 8 11 15 9 17 21 23 13 12 18 21 14 9 10 16 12 10
39 22 26 29 27 20 16 17 33 21 11 9 14 22 28 31 29 20 18 14 17 13 14 15 16 12 5 2 2 2 5 13 12 9 10 18 20 17 22 27 19 15 20 16
69 61 37 28 22 32 32 23 27 22 16 10 8 25 27 28 21 15 9 13 18 18 16 14 22 16 7 13 8 4 3 8 13 7 8 12 24 24 27 29 32 30 27 22
38 33 23 15 12 17 28 11 30 20 18 9 8 16 23 26 27 27 19 17 25 21 19 20 20 16 12 10 7 5 9 4 8 18 24 21 21 29 29 27 25 22 19 15
5 8 20 36 22 7 10 37 23 16 24 35 22 24 33 30 15 22 20 24 21 20 20 18 11 5 3 8 8 18 15 11 11 12 13 14 21 23 22 19 18 20 18 17
11 7 14 15 20 7 12 17 22 33 26 21 28 30 45 32 33 36 38 38 31 22 13 8 10 6 2 15 12 11 7 7 10 9 8 12 13 15 17 18 15 12 14 15
27 27 20 25 31 31 28 21 13 20 33 34 36 44 34 40 44 39 35 28 27 14 11 10 10 14 14 11 13 12 8 3 7 8 10 11 10 11 13 15 13 11 12 13
41 45 42 35 30 28 23 16 22 21 23 35 38 42 47 45 42 47 41 27 18 11 5 12 18 14 10 8 8 6 7 7 7 10 12 13 13 14 15 16 17 17 17 18
30 27 30 30 28 31 35 31 35 39 44 46 51 52 58 49 37 31 31 22 17 15 14 14 16 10 3 10 6 4 8 13 14 14 17 18 15 11 12 16 20 24 27 31
17 29 34 31 38 42 39 36 36 40 45 46 46 43 40 32 33 29 26 25 24 21 18 12 8 9 13 15 10 8 10 14 19 23 15 14 12 13 17 23 29 35 38 41
35 35 29 26 29 35 43 44 49 44 41 46 44 39 30 29 30 28 23 19 15 16 16 18 18 10 13 10 9 6 10 18 22 13 11 14 17 24 32 37 40 41 41 40
41 40 43 44 45 45 41 41 43 43 40 39 39 32 27 24 24 22 17 16 13 12 9 12 12 9 10 6 4 7 13 18 23 15 17 20 27 36 45 44 41 41 41 41
Wind_Direction_850mb
174 208 220 202 251 22 160 212 162 261 207 179 174 144 134 133 137 146 159 180 205 257 331 335 338 339 336 337 337 333 334 333 329 322 318 312 306 295 288 278 266 263 263 262
90 319 348 300 308 352 327 261 237 225 259 170 161 141 141 148 150 163 168 178 188 320 330 329 334 331 333 336 339 337 335 333 331 322 318 315 319 307 295 287 274 262 254 251
242 50 31 334 223 297 280 261 215 267 202 174 157 150 152 145 149 159 173 217 318 322 323 327 328 328 334 338 340 336 338 340 339 339 330 325 323 310 287 287 274 259 249 249
191 65 260 237 229 224 245 261 286 159 152 168 159 149 143 148 152 174 233 290 307 317 327 330 331 324 330 335 340 335 343 346 346 347 349 343 327 307 275 276 271 251 249 252
153 194 275 313 292 289 310 314 345 122 124 146 144 138 151 165 173 190 250 302 318 321 322 331 329 326 328 338 329 343 345 347 359 357 350 348 350 7 330 269 254 241 238 242
141 184 215 212 231 223 170 256 242 139 149 166 164 140 241 181 182 212 265 294 298 309 308 327 329 336 325 341 339 343 341 340 347 345 349 349 5 3 348 289 253 245 239 242
208 237 269 238 203 149 158 246 179 171 166 166 180 194 166 202 271 230 279 298 296 296 289 314 324 344 333 335 357 343 341 344 339 339 328 335 355 15 20 16 230 241 255 246
79 200 296 197 100 178 207 152 169 168 172 177 182 184 197 223 208 232 249 279 290 278 286 314 323 329 338 337 327 342 353 351 345 350 351 352 5 25 23 50 64 63 61 205
152 233 287 242 230 204 170 178 184 186 193 201 204 200 201 207 208 232 232 287 289 266 253 307 319 325 331 343 335 348 352 355 348 352 344 8 23 47 43 43 51 53 51 79
24 340 350 15 341 214 201 207 200 203 183 161 162 194 240 235 197 217 222 277 294 249 261 296 314 340 327 345 337 337 355 8 9 15 3 38 47 47 57 64 59 69 67 65
274 324 342 345 341 331 335 276 248 203 202 201 207 239 258 283 227 240 233 277 281 248 260 265 300 325 328 344 342 334 13 0 30 47 38 31 47 60 67 63 63 66 71 74
236 308 305 312 323 296 279 351 328 207 192 205 231 253 264 289 248 218 211 283 247 193 197 233 295 305 326 340 346 348 20 2 31 38 43 30 58 52 63 61 61 62 62 63
279 301 310 306 313 307 310 274 240 254 272 262 249 266 283 286 257 200 180 313 229 205 164 240 291 299 318 358 53 26 21 16 14 34 53 49 51 48 59 43 52 55 68 66
287 305 309 308 307 300 303 303 250 253 235 258 272 276 264 273 190 186 229 263 225 205 206 266 316 354 348 79 217 3 13 358 3 9 62 54 36 44 51 46 47 68 62 59
278 284 283 286 289 280 291 279 293 294 286 264 268 267 248 201 195 194 128 231 220 183 207 213 91 16 104 87 33 355 43 51 20 39 28 36 33 52 46 53 63 65 57 56
278 278 251 258 267 276 273 278 278 301 266 253 250 227 196 193 165 157 193 220 209 185 178 192 147 118 111 65 26 15 101 58 30 51 69 53 71 42 23 23 52 74 78 38
234 222 249 264 258 263 263 295 272 217 154 181 204 189 182 187 189 194 206 230 207 216 211 200 183 174 166 237 286 352 54 30 33 18 60 30 22 27 40 56 70 81 92 86
255 259 244 249 266 264 273 308 202 166 126 125 239 231 213 226 224 186 226 224 213 232 213 210 211 216 201 220 251 269 41 28 35 40 60 76 65 61 77 76 86 90 96 98
240 226 211 234 249 265 283 303 224 188 179 275 222 239 225 201 185 182 191 219 220 212 170 172 189 211 233 258 256 177 137 160 98 82 97 100 80 83 85 92 86 82 71 55
198 175 303 285 204 167 154 232 225 205 197 174 159 137 173 166 183 184 152 135 140 159 172 181 166 170 118 111 140 153 130 116 120 97 79 76 88 96 103 103 93 80 70 60
336 49 2 179 228 293 235 218 187 183 169 178 194 211 181 167 150 160 146 145 129 116 113 139 178 178 129 149 149 144 153 110 98 85 67 66 66 73 75 81 83 75 81 61
113 114 129 144 132 115 105 109 127 145 161 179 166 167 158 144 156 155 158 153 133 123 112 110 121 122 130 136 135 142 134 84 46 45 54 53 47 46 48 49 46 28 4 357
114 110 101 100 97 92 111 128 128 128 152 154 164 156 145 143 150 141 132 128 126 116 106 109 121 126 137 118 91 74 65 59 39 37 32 30 30 17 14 19 15 9 355 341
100 88 90 94 109 109 106 111 118 116 123 129 131 134 140 137 122 127 128 120 110 108 123 129 118 109 102 85 82 37 36 42 38 20 3 354 3 7 3 360 347 339 332 325
110 125 118 111 104 100 106 117 124 122 120 123 120 118 119 115 110 111 118 118 101 91 92 84 83 111 96 89 60 28 23 27 12 8 43 59 48 21 359 345 337 331 325 320
126 128 123 116 109 113 112 111 113 120 119 114 110 113 109 105 106 109 104 97 79 97 93 80 75 90 76 50 21 43 32 14 12 37 38 22 3 349 342 334 330 326 323 319
101 106 112 112 107 105 106 108 111 113 112 112 113 119 114 121 128 119 131 123 104 108 102 89 66 78 81 42 44 50 25 10 4 20 10 357 352 350 345 341 338 334 330 324